| time (UTC) | temp F | wind direction | speed MPH | gust MPH | rain 1hr in | rain 24hr in | rain mn in | humidity % | barometer mb |
| 20260903173011 | 0 | 242 | 0.0 | 0.0 | 0.00 | 0.00 | 0.00 | 1002.8 | |
| 20260903171556 | 0 | 242 | 0.0 | 0.0 | 0.00 | 0.00 | 0.00 | 1002.9 | |
| 20260903170024 | 0 | 243 | 0.0 | 0.0 | 0.00 | 0.00 | 0.00 | 1003.5 | |
| 20260903163047 | 0 | 260 | 0.0 | 0.0 | 0.00 | 0.00 | 0.00 | 1003.6 | |
| 20260903161513 | 0 | 268 | 0.0 | 0.0 | 0.00 | 0.00 | 0.00 | 1003.5 | |
| 20260903160004 | 0 | 266 | 0.0 | 0.0 | 0.00 | 0.00 | 0.00 | 1003.4 | |
| 20260903154517 | 0 | 266 | 0.0 | 0.0 | 0.00 | 0.00 | 0.00 | 1003.5 | |
| 20260903153055 | 0 | 266 | 0.0 | 0.0 | 0.00 | 0.00 | 0.00 | 1003.4 | |
| 20260903153017 | 0 | 267 | 0.0 | 0.0 | 0.00 | 0.00 | 0.00 | 1003.4 | |
| 20260903151549 | 0 | 261 | 0.0 | 0.0 | 0.00 | 0.00 | 0.00 | 1004.0 | |
| 20260903150100 | 0 | 266 | 0.0 | 0.0 | 0.00 | 0.00 | 0.00 | 1004.0 | |
| 20260903144549 | 0 | 264 | 0.0 | 0.0 | 0.00 | 0.00 | 0.00 | 1004.3 | |
| 20260903143049 | 0 | 267 | 0.0 | 0.0 | 0.00 | 0.00 | 0.00 | 1004.5 | |
| 20260903141539 | 0 | 275 | 0.0 | 0.0 | 0.00 | 0.00 | 0.00 | 1004.3 | |
| 20260903140038 | 0 | 266 | 0.0 | 0.0 | 0.00 | 0.00 | 0.00 | 1004.3 | |
| 20260903134523 | 0 | 271 | 0.0 | 0.0 | 0.00 | 0.00 | 0.00 | 1004.1 | |
| 20260903133051 | 0 | 272 | 0.0 | 0.0 | 0.00 | 0.00 | 0.00 | 1004.3 | |
| 20260903131513 | 0 | 273 | 0.0 | 0.0 | 0.00 | 0.00 | 0.00 | 1004.2 | |
| 20260903130008 | 0 | 268 | 0.0 | 0.0 | 0.00 | 0.00 | 0.00 | 1004.1 | |
| 20260903124523 | 0 | 271 | 0.0 | 0.0 | 0.00 | 0.00 | 0.00 | 1004.3 | |
| 20260903123031 | 0 | 273 | 0.0 | 0.0 | 0.00 | 0.00 | 0.00 | 1004.1 | |
| 20260903121518 | 0 | 266 | 0.0 | 0.0 | 0.00 | 0.00 | 0.00 | 1004.5 | |
| 20260903120017 | 0 | 268 | 0.0 | 0.0 | 0.00 | 0.00 | 0.00 | 1004.6 | |
| 20260903114511 | 0 | 265 | 0.0 | 0.0 | 0.00 | 0.00 | 0.00 | 1004.6 | |
| 20260903113015 | 0 | 273 | 0.0 | 0.0 | 0.00 | 0.00 | 0.00 | 1004.5 | |
| 20260903111501 | 0 | 276 | 0.0 | 0.0 | 0.00 | 0.00 | 0.00 | 1004.6 | |
| 20260903110017 | 0 | 281 | 0.0 | 0.0 | 0.00 | 0.00 | 0.00 | 1004.7 | |
| 20260903104513 | 0 | 275 | 0.0 | 0.0 | 0.00 | 0.00 | 0.00 | 1004.7 | |
| 20260903103033 | 0 | 271 | 0.0 | 0.0 | 0.00 | 0.00 | 0.00 | 1004.8 | |
| 20260903101526 | 0 | 271 | 0.0 | 0.0 | 0.00 | 0.00 | 0.00 | 1004.7 | |
| 20260903100059 | 0 | 273 | 0.0 | 0.0 | 0.00 | 0.00 | 0.00 | 1004.8 | |
| 20260903094556 | 0 | 273 | 0.0 | 0.0 | 0.00 | 0.00 | 0.00 | 1004.8 | |
| 20260903093100 | 0 | 271 | 0.0 | 0.0 | 0.00 | 0.00 | 0.00 | 1004.5 | |
| 20260903091555 | 0 | 272 | 0.0 | 0.0 | 0.00 | 0.00 | 0.00 | 1004.6 | |
| 20260903090051 | 0 | 272 | 0.0 | 0.0 | 0.00 | 0.00 | 0.00 | 1004.7 | |
| 20260903084528 | 0 | 273 | 0.0 | 0.0 | 0.00 | 0.00 | 0.00 | 1004.6 | |
| 20260903083008 | 0 | 273 | 0.0 | 0.0 | 0.00 | 0.00 | 0.00 | 1004.5 | |
| 20260903081536 | 0 | 272 | 0.0 | 0.0 | 0.00 | 0.00 | 0.00 | 1004.7 | |
| 20260903080008 | 0 | 273 | 0.0 | 0.0 | 0.00 | 0.00 | 0.00 | 1004.6 | |
| 20260903074601 | 0 | 273 | 0.0 | 0.0 | 0.00 | 0.00 | 0.00 | 1004.6 | |
| 20260903073059 | 0 | 274 | 0.0 | 0.0 | 0.00 | 0.00 | 0.00 | 1004.5 | |
| 20260903071550 | 0 | 275 | 0.0 | 0.0 | 0.00 | 0.00 | 0.00 | 1004.6 | |
| 20260903070046 | 0 | 277 | 0.0 | 0.0 | 0.00 | 0.00 | 0.00 | 1004.5 | |
| 20260903064524 | 0 | 276 | 0.0 | 0.0 | 0.00 | 0.00 | 0.00 | 1004.6 | |
| 20260903063025 | 0 | 276 | 0.0 | 0.0 | 0.00 | 0.00 | 0.00 | 1004.3 | |
| 20260903061553 | 0 | 0.0 | 0.0 | 0.00 | 0.00 | 0.00 | 1004.0 | ||
| 20260903061510 | 0 | 0.0 | 0.0 | 0.00 | 0.00 | 0.00 | 1003.9 | ||
| 20260903060038 | 0 | 0.0 | 0.0 | 0.00 | 0.00 | 0.00 | 1003.7 | ||
| 20260903054521 | 0 | 0.0 | 0.0 | 0.00 | 0.00 | 0.00 | 1003.6 | ||
| 20260903051505 | 0 | 0.0 | 0.0 | 0.00 | 0.00 | 0.00 | 1003.5 | ||
| 20260903050027 | 0 | 0.0 | 0.0 | 0.00 | 0.00 | 0.00 | 1003.5 | ||
| 20260903043038 | 0 | 0.0 | 0.0 | 0.00 | 0.00 | 0.00 | 1003.5 | ||
| 20260903041517 | 0 | 0.0 | 0.0 | 0.00 | 0.00 | 0.00 | 1003.5 | ||
| 20260903040041 | 0 | 0.0 | 0.0 | 0.00 | 0.00 | 0.00 | 1003.6 | ||
| 20260903034600 | 0 | 0.0 | 0.0 | 0.00 | 0.00 | 0.00 | 1003.5 | ||
| 20260903031520 | 0 | 0.0 | 0.0 | 0.00 | 0.00 | 0.00 | 1003.2 | ||
| 20260903030052 | 0 | 0.0 | 0.0 | 0.00 | 0.00 | 0.00 | 1003.2 | ||
| 20260903024537 | 0 | 0.0 | 0.0 | 0.00 | 0.00 | 0.00 | 1003.2 | ||
| 20260903023032 | 0 | 0.0 | 0.0 | 0.00 | 0.00 | 0.00 | 1003.2 | ||
| 20260903021533 | 0 | 0.0 | 0.0 | 0.00 | 0.00 | 0.00 | 1003.1 | ||
| 20260903020023 | 0 | 0.0 | 0.0 | 0.00 | 0.00 | 0.00 | 1003.0 | ||
| 20260903013014 | 0 | 280 | 0.0 | 0.0 | 0.00 | 0.00 | 0.00 | 1003.0 | |
| 20260903010059 | 0 | 280 | 0.0 | 0.0 | 0.00 | 0.00 | 0.00 | 1003.0 | |
| 20260903010023 | 0 | 280 | 0.0 | 0.0 | 0.00 | 0.00 | 0.00 | 1003.0 | |
| 20260903004547 | 0 | 280 | 0.0 | 0.0 | 0.00 | 0.00 | 0.00 | 1002.8 | |
| 20260903003006 | 0 | 280 | 0.0 | 0.0 | 0.00 | 0.00 | 0.00 | 1002.6 | |
| 20260903001556 | 0 | 265 | 0.0 | 0.0 | 0.00 | 0.00 | 0.00 | 1002.6 | |
| 20260903001512 | 0 | 266 | 0.0 | 0.0 | 0.00 | 0.00 | 0.00 | 1002.6 | |
| 20260903000013 | 0 | 266 | 0.0 | 0.0 | 0.00 | 0.00 | 0.00 | 1002.6 | |
| 20260902234531 | 0 | 267 | 0.0 | 0.0 | 0.00 | 0.00 | 0.00 | 1002.5 | |
| 20260902233028 | 0 | 266 | 0.0 | 0.0 | 0.00 | 0.00 | 0.00 | 1002.7 | |
| 20260902231535 | 0 | 266 | 0.0 | 0.0 | 0.00 | 0.00 | 0.00 | 1002.8 | |
| 20260902230004 | 0 | 265 | 0.0 | 0.0 | 0.00 | 0.00 | 0.00 | 1002.8 | |
| 20260902224601 | 0 | 271 | 0.0 | 0.0 | 0.00 | 0.00 | 0.00 | 1002.6 | |
| 20260902224501 | 0 | 273 | 0.0 | 0.0 | 0.00 | 0.00 | 0.00 | 1002.6 | |
| 20260902223011 | 0 | 272 | 0.0 | 0.0 | 0.00 | 0.00 | 0.00 | 1002.5 | |
| 20260902221538 | 0 | 283 | 0.0 | 0.0 | 0.00 | 0.00 | 0.00 | 1002.4 | |
| 20260902220014 | 0 | 266 | 0.0 | 0.0 | 0.00 | 0.00 | 0.00 | 1002.2 | |
| 20260902214538 | 0 | 268 | 0.0 | 0.0 | 0.00 | 0.00 | 0.00 | 1002.2 | |
| 20260902213033 | 0 | 271 | 0.0 | 0.0 | 0.00 | 0.00 | 0.00 | 1002.3 | |
| 20260902211556 | 0 | 268 | 0.0 | 0.0 | 0.00 | 0.00 | 0.00 | 1002.3 | |
| 20260902210055 | 0 | 272 | 0.0 | 0.0 | 0.00 | 0.00 | 0.00 | 1002.4 | |
| 20260902204533 | 0 | 273 | 0.0 | 0.0 | 0.00 | 0.00 | 0.00 | 1002.4 | |
| 20260902203027 | 0 | 274 | 0.0 | 0.0 | 0.00 | 0.00 | 0.00 | 1002.2 | |
| 20260902201550 | 0 | 278 | 0.0 | 0.0 | 0.00 | 0.00 | 0.00 | 1002.2 | |
| 20260902200050 | 0 | 279 | 0.0 | 0.0 | 0.00 | 0.00 | 0.00 | 1002.1 | |
| 20260902194542 | 0 | 278 | 0.0 | 0.0 | 0.00 | 0.00 | 0.00 | 1002.2 | |
| 20260902193046 | 0 | 278 | 0.0 | 0.0 | 0.00 | 0.00 | 0.00 | 1002.3 | |
| 20260902191524 | 0 | 279 | 0.0 | 0.0 | 0.00 | 0.00 | 0.00 | 1002.1 | |
| 20260902190106 | 0 | 279 | 0.0 | 0.0 | 0.00 | 0.00 | 0.00 | 1002.1 | |
| 20260902184618 | 0 | 277 | 0.0 | 0.0 | 0.00 | 0.00 | 0.00 | 1002.1 | |
| 20260902183011 | 0 | 278 | 0.0 | 0.0 | 0.00 | 0.00 | 0.00 | 1001.9 | |
| 20260902181506 | 0 | 280 | 0.0 | 0.0 | 0.00 | 0.00 | 0.00 | 1002.0 | |
| 20260902180022 | 0 | 280 | 0.0 | 0.0 | 0.00 | 0.00 | 0.00 | 1002.0 | |
| 20260902174545 | 0 | 278 | 0.0 | 0.0 | 0.00 | 0.00 | 0.00 | 1002.0 |